Regional Weather Roundup
Issued by NWS

Home | Current Version | Previous Version | Graphics & Text | Print | Product List | Glossary On
Versions: 1 2 3 4 5 6 7 8 9 10 11 12 13 14 15 16 17 18 19 20 21 22 23 24 25 26 27 28 29 30 31 32 33 34 35 36 37 38 39 40 41 42 43 44 45 46 47 48 49 50
000
ASUS43 KDMX 242106
RWRIA

WEATHER ROUNDUP FOR IOWA
NATIONAL WEATHER SERVICE DES MOINES IA
400 PM CDT SUN SEP 24 2017

NOTE: "FAIR" INDICATES FEW OR NO CLOUDS BELOW 12,000 FEET WITH NO
SIGNIFICANT WEATHER AND/OR OBSTRUCTIONS TO VISIBILITY.

* - THESE STATIONS ARE NOT NWS STATIONS...THUS NOT UNDER NWS
QUALITY CONTROL.  THEY ALSO DO NOT REPORT WEATHER SUCH
AS PRECIPITATION OR FOG.

IAZ001>003-012>014-020>022-031>034-043>046-242200-
   NORTHWEST IOWA

CITY           SKY/WX    TMP DP  RH WIND       PRES   REMARKS
CARROLL *      MOSUNNY   91  64  40 S17G25    29.88F HX  93
CHEROKEE *     PTSUNNY   80  65  59 S15       29.87S HX  82
DENISON *      PTSUNNY   84  64  51 S12G17    29.90S HX  86
LE MARS *      CLOUDY    75  68  78 W6        29.88S
ORANGE CITY *  PTSUNNY   73  70  88 CALM      29.90R
SHELDON *      PTSUNNY   73  68  83 W8        29.89R
SIOUX CITY     CLOUDY    76  69  79 NW14      29.86S
SPENCER        CLOUDY    86  61  42 S13       29.87F HX  86
STORM LAKE *   MOSUNNY   84  63  48 SW20G30   29.89R HX  85
$$

IAZ055>058-069>071-079>083-090>094-242200-
   SOUTHWEST IOWA

CITY           SKY/WX    TMP DP  RH WIND       PRES   REMARKS
ATLANTIC *     MOSUNNY   88  63  42 S16       29.88F HX  88
AUDUBON *      SUNNY     88  66  48 S10G18    29.90F HX  90
CLARINDA *     MOSUNNY   91  64  40 S15G23    29.90F HX  93
COUNCIL BLFS * MOSUNNY   88  64  45 S17G28    29.87S HX  89
CRESTON *      MOSUNNY   88  63  42 SE14G20   29.93F HX  88
HARLAN  *      PTSUNNY   88  63  42 S14G22    29.91S HX  88
LAMONI         MOSUNNY   86  64  47 S10       29.93F HX  87
RED OAK *      MOSUNNY   90  63  40 S14G22    29.88F HX  90
SHENANDOAH *   MOSUNNY   91  61  35 S14G21    29.87F HX  91
$$

IAZ047>049-059>061-072>074-084-242200-
   CENTRAL IOWA

CITY           SKY/WX    TMP DP  RH WIND       PRES   REMARKS
AMES           MOSUNNY   89  64  43 S12G22    29.91F HX  90
ANKENY *       SUNNY     90  61  37 S13G20    29.92F HX  89
BOONE *        MOSUNNY   90  61  37 S13G21    29.91F HX  89
CHARITON *     SUNNY     88  63  42 S14       29.93F HX  88
DES MOINES     MOSUNNY   91  62  37 SE15      29.91F HX  91
GRINNELL*      MOSUNNY   88  60  39 S14       29.96F HX  88
KNOXVILLE *    SUNNY     90  61  37 S14G21    29.93F HX  89
MARSHALLTOWN   SUNNY     90  62  39 S17       29.92F HX  90
NEWTON *       SUNNY     90  61  37 S16       29.94F HX  89
PELLA *        SUNNY     91  57  32 S13       29.94F HX  89
PERRY *          N/A     93  55  27 S12G21    29.89F HX  90
$$

IAZ004>006-015-016-023>025-035-036-242200-
   NORTH CENTRAL IOWA

CITY           SKY/WX    TMP DP  RH WIND       PRES   REMARKS
ALGONA *       HVY RAIN  75  66  73 SW16G46   29.91R
CLARION *      SUNNY     91  57  31 S14G21    29.89F HX  90
ESTHERVILLE    MOSUNNY   86  61  42 S16G24    29.86F HX  86
FORT DODGE *   MOSUNNY   90  61  37 S18       29.89F HX  90
MASON CITY     CLOUDY    89  60  37 S14       29.92F HX  89
FOREST CITY *    N/A     88  57  35 S15       29.90F HX  86
WEBSTER CITY * CLOUDY    90  61  37 S12G21    29.88F HX  89
IOWA FALLS *     N/A     90  61  37 S14G21    29.93F HX  90
$$

IAZ007>011-017>019-026>030-037>042-050>054-066-242200-
   NORTHEAST IOWA

CITY           SKY/WX    TMP DP  RH WIND       PRES   REMARKS
CEDAR RAPIDS   SUNNY     90  62  39 S14G20    29.95F HX  90
CHARLES CITY * SUNNY     88  61  40 S10G18    29.93F HX  88
CLINTON *      SUNNY    N/A N/A N/A S10       29.99F
DECORAH *      CLOUDY    90  63  40 S15       29.94F HX  90
DUBUQUE        SUNNY     86  63  45 S9        30.00F HX  87
MONTICELLO *   SUNNY     90  63  40 S12       29.96F HX  90
OELWEIN *      MOSUNNY   88  61  40 S13G18    29.95F HX  88
WATERLOO       MOSUNNY   89  61  38 S14       29.92F HX  89
$$

IAZ064-065-067-068-078-242200-
   EAST CENTRAL IOWA

CITY           SKY/WX    TMP DP  RH WIND       PRES   REMARKS
DAVENPORT      SUNNY     88  62  41 S8        30.00F HX  88
IOWA CITY      MOSUNNY   90  64  42 S10       29.97F HX  91
MUSCATINE *    MOSUNNY   91  61  35 SE10      29.96F HX  91
QUAD CITIES    MOSUNNY   89  61  38 S9        29.96F HX  89
$$

IAZ062-063-075>077-085>089-095>099-242200-
   SOUTHEAST IOWA

CITY           SKY/WX    TMP DP  RH WIND       PRES   REMARKS
BURLINGTON     MOSUNNY   89  63  41 S8        29.96F HX  90
FAIRFIELD *    SUNNY     90  61  37 S15       29.95F HX  89
FORT MADISON * SUNNY     91  61  35 S10       29.97F HX  91
KEOKUK *       SUNNY     91  59  33 VRB5G13   29.95F HX  90
OSKALOOSA *      N/A     90  63  40 S9G16     29.96F HX  90
OTTUMWA        SUNNY     90  63  40 S10       29.95F HX  91
WASHINGTON *   SUNNY     90  64  43 S12       29.97F HX  91
$$

ABBREVIATIONS USED IN REMARKS
   TC - TEMPERATURES IN CELSIUS
  WCI - WIND CHILL INDEX
   HX - HEAT INDEX
  VSB - VISIBILITY
$$





USA.gov is the U.S. government's official web portal to all federal, state and local government web resources and services.